McConnell AFB, KS

5:51 PM CDT on July 23, 2019 (GMT -0500)
McConnell Air Force Base

Weather History for KIAB - May, 2019

Change the Weather History Date:

Friday, May 31, 2019

  Actual Average Record
Temperature  
Mean Temperature 74 °F -  
Max Temperature 84 °F 77 °F 93 °F (2000)
Min Temperature 63 °F 58 °F 53 °F (2004)
Cooling Degree Days 8    
Growing Degree Days 24 (Base 50)    
Moisture  
Dew Point 55 °F    
Average Humidity 54    
Maximum Humidity 70    
Minimum Humidity 33    
Precipitation  
Precipitation 0.00 in - - ()
Sea Level Pressure  
Sea Level Pressure 29.95 in    
Wind  
Wind Speed 3 mph (SSE)    
Max Wind Speed 12 mph    
Max Gust Speed -    
Visibility 10 miles    
Events      
Averages and records for this station are not official NWS values.
T = Trace of Precipitation, MM = Missing Value Source: NWS Daily Summary

Daily Weather History Graph

Daily Weather History Graph

Search for Another Location

Airport or City:

Astronomy

May. 31, 2019 Rise Set
Actual Time 6:09 AM CDT 8:44 PM CDT
Civil Twilight 5:39 AM CDT 9:14 PM CDT
Nautical Twilight 5:01 AM CDT 9:52 PM CDT
Astronomical Twilight 4:19 AM CDT 10:35 PM CDT
Moon 4:39 AM CDT (5/31) 5:59 PM CDT (5/31)
Length of Visible Light 15h 35m
Length of Day
14h 34m
Waning Crescent, 8% of the Moon is Illuminated
May 31
Waning Crescent
Jun 3
New
Jun 10
First Quarter
Jun 17
Full
Jun 25
Last Quarter

Hourly Weather History & Observations

Time (CDT) Temp. Heat Index Dew Point Humidity Pressure Visibility Wind Dir Wind Speed Gust Speed Precip Events Conditions
12:56 AM 66.4 °F - 53.4 °F 63% 29.95 in 10.0 mi Calm Calm - N/A   Clear
1:56 AM 65.7 °F - 53.6 °F 65% 29.96 in 10.0 mi Calm Calm - N/A   Clear
2:56 AM 65.3 °F - 53.2 °F 65% 29.95 in 10.0 mi Calm Calm - N/A   Clear
3:56 AM 65.8 °F - 52.5 °F 62% 29.96 in 10.0 mi Calm Calm - N/A   Clear
4:56 AM 65.5 °F - 51.6 °F 61% 29.96 in 10.0 mi Calm Calm - N/A   Clear
5:56 AM 66.0 °F - 51.3 °F 59% 29.96 in 10.0 mi Calm Calm - N/A   Clear
6:56 AM 63.3 °F - 52.5 °F 68% 29.98 in 10.0 mi SSE 3.5 mph - N/A   Clear
7:56 AM 64.8 °F - 54.7 °F 70% 30.00 in 10.0 mi Calm Calm - N/A   Clear
8:56 AM 68.4 °F - 57.7 °F 69% 30.01 in 10.0 mi South 3.5 mph - N/A   Clear
9:56 AM 72.7 °F - 57.9 °F 60% 30.02 in 10.0 mi ESE 3.5 mph - N/A   Partly Cloudy
10:56 AM 77.9 °F - 56.7 °F 48% 30.01 in 10.0 mi East 9.2 mph - N/A   Partly Cloudy
11:56 AM 80.1 °F 80.1 °F 54.1 °F 41% 29.99 in 10.0 mi East 10.4 mph - N/A   Partly Cloudy
1:56 PM 83.3 °F - 52.7 °F 35% 29.98 in 10.0 mi ESE 3.5 mph - N/A   Mostly Cloudy
2:56 PM 83.5 °F - 52.2 °F 34% 29.96 in 10.0 mi SSW 8.1 mph - N/A   Clear
3:56 PM 83.8 °F - 51.6 °F 33% 29.94 in 10.0 mi SW 9.2 mph - N/A   Clear
4:56 PM 84.6 °F 83.5 °F 56.1 °F 38% 29.91 in 10.0 mi SSW 10.4 mph - N/A   Clear
5:56 PM 83.7 °F 82.8 °F 56.1 °F 39% 29.91 in 10.0 mi South 11.5 mph - N/A   Partly Cloudy
6:56 PM 82.0 °F 81.5 °F 55.2 °F 40% 29.90 in 10.0 mi South 11.5 mph - N/A   Clear
7:56 PM 79.3 °F - 57.9 °F 48% 29.90 in 10.0 mi South 6.9 mph - N/A   Clear
8:56 PM 75.9 °F - 59.0 °F 56% 29.90 in 10.0 mi SSE 5.8 mph - N/A   Clear
9:56 PM 73.4 °F - 59.5 °F 62% 29.91 in 10.0 mi SE 3.5 mph - N/A   Clear
10:56 PM 72.1 °F - 59.2 °F 64% 29.93 in 10.0 mi SE 3.5 mph - N/A   Clear
11:56 PM 70.5 °F - 59.0 °F 67% 29.93 in 10.0 mi SE 3.5 mph - N/A   Clear